Location: Mercogliano
(40.9167°N, 14.7333°E)
Time: 08:17:54
(UTC+00:00)

Cosmos 2150 Rocket - Pass Details

Date: 26 January 2021
Orbit: 748 x 808 km, 74.0° (Epoch: 04 March)

Event Time Altitude Azimuth Distance (km) Brightness Sun altitude
Rises 18:02:14 0° 184° (S) 3,178 7.3 -21.0°
Reaches altitude 10° 18:04:37 10° 179° (S) 2,260 6.5 -21.5°
Enters shadow 18:09:20 51° 114° (ESE) 946 4.1 -22.3°
